Wetbulb
63.77 63.43 65.08 65.31 64.01 62.80 61.93 61.24 61.16 61.45 60.58 60.83 61.35 62.29 61.37 61.41 63.02 60.63 60.35 63.90 65.18 67.96 69.99 70.58 71.21 70.86 70.06 68.97 67.81 67.05 66.46 65.63 65.46 64.93 64.39 64.33 64.03 63.06 62.76 62.83 62.85 62.67 62.89
64.81 64.11 64.90 64.63 63.52 62.96 62.02 61.95 61.06 61.18 60.67 61.22 62.24 63.02 63.75 64.41 64.37 61.82 60.57 62.45 63.85 65.67 67.49 69.39 69.40 68.77 67.89 66.42 65.58 65.04 64.46 62.92 62.01 61.61 62.08 62.44 61.79 60.88 60.58 60.15 60.17 60.32 60.15
65.63 65.08 64.79 64.17 63.72 63.49 61.70 61.96 61.71 61.99 60.84 63.06 62.93 63.48 63.62 65.00 65.39 64.50 62.41 63.14 63.20 63.44 65.05 67.11 67.49 67.09 65.97 64.57 63.33 62.29 61.68 61.33 60.50 60.50 60.05 60.18 59.83 59.32 58.71 58.67 58.80 58.66 58.68
66.88 65.39 65.43 65.06 64.76 63.99 63.03 62.60 63.22 62.36 62.53 62.52 62.72 63.40 63.73 65.24 66.18 67.20 66.73 65.17 64.30 64.96 63.85 64.50 64.67 64.71 63.98 62.39 61.22 60.45 59.48 59.40 58.98 58.83 58.76 58.16 58.00 57.82 57.47 57.11 57.19 57.00 57.05
68.81 67.45 66.76 65.65 65.88 65.50 65.04 64.36 63.86 63.57 62.56 63.22 63.94 64.98 66.72 66.98 67.42 68.01 67.69 66.20 64.94 65.60 64.49 63.04 62.61 61.56 61.48 62.06 60.24 58.99 58.68 58.29 57.96 57.20 56.88 56.22 55.72 55.43 55.06 55.10 55.31 55.16 55.41
68.47 68.65 67.04 66.46 66.51 65.88 65.38 65.27 64.30 64.41 64.01 63.51 65.74 65.87 65.67 66.15 66.36 65.34 65.68 66.65 66.25 66.38 63.94 61.95 61.02 57.86 59.28 60.52 59.84 58.88 58.59 57.78 56.70 55.46 54.55 54.25 54.02 53.92 53.93 54.28 54.26 54.53 54.83
68.67 68.75 68.09 66.84 67.35 66.30 65.97 65.73 64.40 63.72 63.79 64.80 62.96 63.03 63.03 64.80 64.91 65.15 65.60 65.51 66.41 66.81 62.60 60.50 56.98 53.89 55.69 58.83 59.61 58.68 58.02 56.99 55.07 53.65 52.91 53.13 52.92 53.03 53.27 53.56 53.86 54.23 54.20
69.86 69.42 68.76 67.82 67.60 66.58 65.40 65.88 65.47 63.50 63.77 64.35 61.97 60.47 58.39 60.97 63.28 64.48 64.78 65.25 64.82 66.08 62.89 58.82 55.69 53.51 52.45 54.33 54.96 57.65 56.79 54.77 53.12 52.30 52.12 52.14 52.07 52.31 52.43 52.74 52.87 52.91 53.14
70.58 70.13 69.10 68.91 67.69 67.32 66.00 66.03 65.93 64.91 63.84 63.64 64.23 61.28 57.06 56.66 59.35 60.91 63.51 62.05 59.21 56.95 55.80 54.60 53.33 52.87 52.04 52.43 53.41 52.53 51.57 50.57 49.85 50.38 50.74 51.15 51.54 51.79 52.15 52.05 51.96 51.90 52.10
70.33 70.57 70.14 68.98 68.52 68.30 66.90 66.23 66.66 66.05 64.50 63.36 62.37 64.23 61.60 59.01 56.76 52.81 55.37 56.63 55.42 53.95 52.75 52.00 51.75 51.77 51.10 52.02 50.43 49.17 48.83 47.88 47.97 48.91 49.86 50.49 51.11 51.37 51.18 51.09 51.21 51.40 51.17
70.14 70.28 69.97 69.71 69.01 68.46 68.06 66.79 66.44 65.96 65.87 64.69 64.49 62.38 60.82 58.45 56.77 51.62 49.35 51.25 53.42 53.59 53.64 51.54 50.78 50.05 50.96 48.93 46.75 47.78 47.93 46.94 47.52 47.44 48.19 49.14 49.76 49.36 49.27 49.57 49.68 49.96 50.27
68.72 69.47 69.70 69.35 69.69 69.03 68.15 67.12 66.81 66.43 66.04 65.70 65.43 63.99 64.31 62.45 57.96 55.11 52.56 49.49 50.36 51.52 52.50 52.10 49.62 49.88 48.79 48.24 48.76 48.82 47.52 46.81 47.13 45.88 46.11 47.04 47.77 47.56 48.01 48.25 48.46 49.00 49.42
68.23 68.45 68.91 68.88 68.98 69.32 68.99 67.55 66.84 66.53 66.46 65.58 64.83 64.85 64.72 64.04 60.04 57.33 55.96 53.32 50.72 52.01 49.96 49.69 49.93 49.18 49.26 46.32 47.22 48.01 48.13 45.92 45.41 45.54 45.66 45.89 45.94 46.06 46.64 47.00 47.58 48.12 48.30
69.10 69.45 68.94 69.15 68.90 69.20 68.96 68.07 67.40 66.87 66.49 66.11 65.53 65.26 64.22 63.82 60.62 58.84 58.56 52.82 48.66 48.26 48.17 49.64 49.34 47.85 47.00 46.37 45.71 48.26 45.38 45.16 44.98 45.34 45.62 44.76 44.96 45.04 45.23 45.51 46.06 46.33 46.95
68.95 68.59 69.15 68.84 69.00 68.96 68.63 68.10 67.18 66.73 66.46 66.12 65.94 64.71 64.30 62.49 59.70 57.90 55.86 54.94 54.13 48.53 45.97 47.28 48.10 47.65 46.46 45.14 45.82 44.74 44.73 46.28 45.99 45.03 44.43 43.75 44.23 44.49 44.91 45.24 45.51 45.70 45.43
67.45 67.14 68.77 69.02 68.82 68.74 68.56 67.83 67.49 66.60 66.29 66.49 66.57 65.49 60.03 56.22 57.44 54.93 53.62 52.61 54.02 51.44 47.15 47.43 48.17 45.60 46.89 46.00 46.83 44.66 44.67 46.53 44.90 43.75 42.90 43.24 43.48 44.30 44.47 44.79 44.90 44.52 43.92
66.51 67.00 67.23 68.17 68.70 68.40 67.77 67.31 67.30 67.01 66.29 66.58 66.23 63.64 59.32 56.10 55.13 53.26 54.58 54.61 52.77 51.26 47.11 45.90 46.65 46.36 43.83 44.74 43.29 43.21 43.57 41.53 41.10 43.37 43.59 43.05 43.09 43.02 43.43 43.85 44.05 43.10 42.13
65.97 66.21 66.83 67.56 68.04 67.99 67.18 67.33 66.65 66.47 66.00 65.80 62.49 60.23 56.55 55.26 53.13 52.86 52.17 51.64 51.76 50.85 46.84 44.97 45.59 43.36 42.19 41.33 40.55 39.23 41.52 42.49 39.91 42.96 42.75 42.87 42.72 42.74 42.64 42.62 41.28 40.69 39.97
65.63 65.78 65.65 66.03 65.89 66.72 66.65 66.67 66.54 65.76 65.45 63.96 60.79 59.08 54.75 53.23 52.12 52.86 52.32 50.36 48.96 48.82 47.11 44.95 43.25 42.08 39.88 39.28 38.01 38.09 38.77 37.82 40.44 42.47 42.10 41.93 42.18 42.66 42.76 41.95 40.58 40.07 39.26
63.74 64.62 64.50 64.21 63.55 63.19 63.02 62.57 61.61 61.69 61.36 59.54 57.48 57.70 53.93 53.58 53.46 52.42 50.98 49.98 48.39 46.38 46.37 43.47 40.64 38.33 37.66 38.31 36.60 33.02 30.56 35.28 36.03 39.66 41.81 40.20 41.27 42.28 41.62 41.32 40.02 40.26 38.96
59.66 61.31 62.89 62.40 63.26 63.27 61.93 60.61 59.17 57.18 55.50 53.12 52.83 53.10 52.99 52.93 49.16 50.10 49.83 48.66 48.57 45.88 43.90 42.04 37.18 31.14 36.17 31.96 30.86 31.90 32.87 31.66 32.80 39.07 34.79 36.65 38.13 40.22 37.54 39.94 39.91 39.32 37.99
54.84 56.58 59.15 60.03 59.92 57.97 48.87 48.14 54.67 56.06 53.58 52.44 51.49 51.29 50.76 49.31 48.12 46.58 47.77 46.95 45.65 45.03 42.86 40.82 37.34 33.98 35.70 35.39 31.73 32.69 33.91 32.67 30.34 33.26 35.81 34.51 35.77 33.81 37.09 38.11 39.66 38.12 37.24
49.96 51.64 52.80 53.55 55.80 56.10 43.97 45.78 46.33 55.02 52.50 51.52 49.59 47.00 47.13 46.22 44.42 44.52 40.73 39.33 37.62 39.19 41.23 41.13 38.05 36.44 34.76 32.78 33.87 32.54 33.49 33.64 32.42 33.65 34.50 27.07 33.40 33.78 36.28 37.57 38.88 37.47 36.52
46.82 48.72 48.54 49.24 50.33 48.38 41.62 44.15 43.25 51.92 51.18 49.48 47.99 46.66 45.56 43.29 43.56 42.61 42.18 40.15 39.39 38.78 38.84 39.43 38.50 36.46 35.91 35.54 35.63 34.90 35.29 34.01 32.95 32.61 33.10 30.64 28.13 32.05 34.51 36.01 37.79 36.73 35.79
35.81 36.72 45.35 46.06 44.86 45.53 40.35 40.15 42.31 44.45 40.16 38.86 43.91 44.95 43.67 43.90 40.63 42.41 41.77 38.02 35.43 33.62 36.39 36.58 36.43 36.07 36.00 36.34 35.12 33.05 32.17 30.83 30.21 31.60 31.34 26.51 31.47 28.50 31.96 32.90 34.45 36.15 35.28
37.26 38.90 36.90 40.69 40.69 41.78 38.85 40.51 42.71 41.46 38.96 39.00 40.02 41.90 40.08 41.66 38.71 40.19 39.42 36.26 33.37 32.40 32.91 32.73 33.10 34.18 33.94 34.41 35.40 34.32 32.31 29.89 29.30 29.35 30.08 28.60 30.56 31.72 29.72 30.15 32.52 33.20 33.26
MSLP
1016.21 1016.59 1016.91 1017.35 1017.80 1018.24 1018.58 1018.91 1019.09 1019.18 1019.26 1019.29 1019.35 1019.36 1019.34 1019.39 1019.32 1019.61 1020.02 1020.05 1019.93 1019.95 1020.01 1020.29 1020.55 1020.75 1020.93 1021.14 1021.31 1021.47 1021.64 1021.75 1021.80 1021.90 1021.91 1021.92 1021.92 1021.89 1021.83 1021.75 1021.65 1021.47 1021.26
1015.52 1015.97 1016.47 1016.88 1017.37 1017.66 1017.97 1018.37 1018.61 1018.79 1018.88 1018.81 1018.83 1018.86 1018.73 1018.76 1018.74 1019.31 1019.70 1019.87 1019.82 1019.99 1020.10 1020.21 1020.40 1020.66 1020.86 1021.07 1021.28 1021.43 1021.54 1021.68 1021.82 1021.88 1021.95 1021.96 1021.95 1021.92 1021.86 1021.74 1021.61 1021.42 1021.21
1015.09 1015.37 1015.95 1016.43 1016.64 1016.99 1017.39 1017.84 1018.06 1018.30 1018.52 1018.50 1018.57 1018.30 1018.38 1018.45 1018.67 1018.82 1019.35 1019.51 1019.58 1019.80 1019.96 1020.21 1020.42 1020.57 1020.76 1020.97 1021.18 1021.38 1021.52 1021.66 1021.77 1021.87 1021.90 1021.93 1021.90 1021.84 1021.72 1021.58 1021.46 1021.31 1021.09
1014.56 1015.02 1015.36 1015.80 1016.05 1016.45 1016.80 1017.23 1017.67 1018.01 1018.17 1018.22 1018.13 1018.08 1018.20 1018.22 1018.24 1018.52 1018.92 1019.22 1019.52 1019.69 1019.96 1020.15 1020.36 1020.55 1020.70 1020.96 1021.17 1021.37 1021.55 1021.73 1021.75 1021.83 1021.86 1021.93 1022.01 1021.88 1021.75 1021.57 1021.33 1021.08 1020.87
1013.78 1014.22 1014.64 1014.89 1015.40 1015.84 1016.30 1016.74 1017.15 1017.33 1017.78 1017.90 1017.92 1017.89 1017.98 1017.95 1017.90 1018.14 1018.48 1018.88 1019.14 1019.25 1019.53 1019.84 1020.11 1020.37 1020.55 1020.78 1020.98 1021.17 1021.41 1021.60 1021.80 1021.94 1021.99 1021.95 1021.96 1021.92 1021.75 1021.51 1021.30 1020.98 1020.65
1013.21 1013.63 1014.01 1014.33 1014.68 1015.31 1015.63 1015.98 1016.32 1016.71 1016.96 1017.33 1017.61 1017.68 1017.60 1017.73 1017.79 1018.08 1018.08 1018.20 1018.55 1018.70 1019.02 1019.43 1019.83 1020.17 1020.36 1020.65 1020.84 1021.07 1021.31 1021.52 1021.76 1021.99 1022.05 1022.04 1021.92 1021.85 1021.66 1021.37 1021.07 1020.76 1020.39
1012.35 1012.86 1013.42 1013.95 1014.11 1014.53 1014.85 1015.24 1015.73 1016.24 1016.68 1016.90 1017.58 1017.73 1017.68 1017.74 1017.77 1017.81 1017.69 1017.82 1017.93 1018.16 1018.65 1019.20 1019.64 1019.96 1020.35 1020.59 1020.78 1021.01 1021.28 1021.47 1021.70 1021.98 1022.01 1021.98 1021.81 1021.64 1021.36 1021.09 1020.72 1020.38 1019.91
1011.42 1012.06 1012.70 1013.13 1013.52 1013.94 1014.27 1014.60 1014.94 1015.65 1016.09 1016.34 1017.16 1017.82 1018.04 1017.97 1017.65 1017.37 1017.39 1017.50 1017.55 1017.54 1018.07 1018.75 1019.10 1019.52 1019.91 1020.35 1020.86 1021.05 1021.27 1021.59 1021.66 1021.84 1021.86 1021.87 1021.71 1021.48 1021.11 1020.80 1020.44 1020.20 1019.87
1010.66 1011.11 1011.67 1012.40 1012.87 1013.37 1013.60 1013.83 1014.21 1014.72 1015.33 1015.72 1015.80 1016.61 1017.61 1017.56 1017.48 1017.22 1017.10 1017.10 1017.34 1017.49 1017.77 1018.26 1018.80 1019.15 1019.67 1020.46 1021.04 1021.51 1021.71 1021.78 1021.83 1021.76 1021.79 1021.76 1021.49 1021.15 1020.76 1020.38 1020.03 1019.87 1019.53
1009.90 1010.19 1010.65 1011.38 1011.99 1012.46 1012.90 1013.05 1013.53 1013.75 1014.43 1014.88 1015.57 1015.13 1015.57 1016.09 1017.11 1017.66 1017.18 1017.27 1017.41 1017.58 1017.93 1018.40 1018.77 1019.01 1019.57 1020.19 1020.87 1021.37 1021.57 1021.64 1021.63 1021.62 1021.64 1021.56 1021.38 1020.99 1020.58 1020.20 1019.94 1019.58 1019.29
1009.22 1009.62 1010.16 1010.71 1011.11 1011.56 1011.88 1012.27 1012.70 1013.10 1013.31 1013.87 1014.10 1014.65 1015.13 1015.50 1015.97 1016.88 1017.42 1017.64 1017.75 1017.62 1017.66 1017.94 1018.33 1018.82 1019.26 1019.95 1020.53 1020.96 1021.22 1021.30 1021.39 1021.41 1021.47 1021.49 1021.24 1020.98 1020.75 1020.40 1020.06 1019.64 1019.12
1008.73 1008.97 1009.27 1009.70 1010.19 1010.66 1010.90 1011.22 1011.75 1012.29 1012.65 1012.98 1013.36 1013.59 1013.71 1014.35 1015.00 1015.93 1016.93 1017.31 1017.30 1017.57 1017.48 1017.89 1018.25 1018.60 1019.08 1019.70 1020.06 1020.58 1020.87 1021.13 1021.27 1021.32 1021.39 1021.28 1021.06 1020.81 1020.52 1020.31 1020.01 1019.54 1019.18
1007.71 1007.90 1008.25 1008.82 1009.14 1009.45 1010.05 1010.68 1011.06 1011.35 1011.73 1012.23 1012.54 1012.71 1013.06 1013.06 1013.54 1014.49 1015.67 1016.59 1017.21 1017.51 1017.67 1017.82 1018.02 1018.18 1018.68 1019.41 1019.89 1020.24 1020.57 1021.03 1021.18 1021.17 1021.21 1021.03 1020.89 1020.64 1020.34 1020.13 1019.72 1019.43 1018.95
1006.25 1006.70 1007.13 1007.63 1008.19 1008.66 1009.24 1009.73 1010.04 1010.45 1010.81 1011.16 1011.49 1011.91 1012.35 1012.61 1012.99 1013.51 1014.11 1015.36 1016.93 1017.34 1017.68 1017.81 1017.97 1018.21 1018.66 1019.18 1019.71 1020.16 1020.50 1020.66 1020.81 1020.78 1020.89 1020.77 1020.70 1020.42 1020.16 1019.97 1019.46 1019.14 1018.71
1005.62 1005.86 1006.35 1006.81 1007.28 1007.82 1008.23 1008.75 1009.30 1009.58 1010.01 1010.22 1010.53 1011.21 1011.46 1012.15 1012.63 1012.92 1013.37 1014.04 1015.11 1016.42 1016.95 1017.17 1018.08 1018.15 1018.62 1019.10 1019.52 1019.92 1020.15 1020.32 1020.23 1020.15 1020.41 1020.57 1020.40 1020.06 1019.82 1019.56 1019.19 1018.90 1018.46
1004.90 1005.23 1005.47 1005.92 1006.42 1006.89 1007.40 1007.84 1008.29 1008.79 1009.20 1009.41 1009.74 1010.31 1010.93 1011.57 1012.27 1012.53 1012.89 1013.53 1014.26 1015.12 1016.31 1016.72 1017.52 1018.05 1018.45 1019.01 1019.37 1019.72 1019.84 1019.87 1020.10 1020.12 1020.36 1020.15 1019.91 1019.63 1019.47 1019.21 1018.92 1018.86 1018.46
1004.27 1004.54 1004.88 1005.28 1005.61 1005.99 1006.42 1006.95 1007.39 1007.83 1008.33 1008.60 1008.98 1009.45 1010.08 1010.69 1011.69 1012.30 1012.98 1013.75 1014.47 1015.01 1015.79 1016.82 1017.04 1018.00 1018.67 1019.03 1019.44 1019.56 1019.74 1019.94 1020.10 1019.88 1019.81 1019.62 1019.38 1019.20 1019.03 1018.72 1018.60 1018.68 1018.45
1003.74 1003.99 1004.32 1004.67 1004.96 1005.32 1005.65 1006.09 1006.55 1006.95 1007.46 1007.84 1008.29 1008.97 1009.73 1010.36 1011.14 1011.71 1012.37 1012.74 1013.63 1014.74 1015.47 1016.38 1017.17 1017.92 1018.75 1019.23 1019.54 1019.71 1019.76 1019.80 1019.86 1019.62 1019.42 1019.34 1019.11 1018.97 1018.75 1018.66 1018.67 1018.61 1018.06
1003.76 1003.51 1003.76 1004.14 1004.52 1004.57 1004.95 1005.31 1005.58 1006.18 1006.55 1006.99 1007.41 1007.98 1008.96 1009.79 1010.64 1011.41 1011.96 1012.60 1012.85 1013.85 1014.70 1015.52 1017.12 1017.67 1018.84 1019.12 1019.40 1019.70 1019.81 1019.80 1019.50 1019.41 1019.11 1019.17 1019.09 1018.95 1018.74 1018.51 1018.51 1018.28 1017.87
1004.13 1003.61 1003.36 1003.61 1003.93 1004.10 1004.51 1004.87 1005.26 1005.81 1006.33 1006.73 1007.08 1007.46 1008.23 1008.96 1010.12 1011.09 1011.72 1012.07 1012.42 1013.10 1014.69 1015.52 1016.74 1017.68 1018.61 1019.09 1019.44 1020.05 1020.03 1019.85 1019.58 1019.29 1019.20 1019.04 1018.99 1018.63 1018.59 1018.49 1018.28 1018.11 1017.54
1004.82 1004.19 1003.90 1003.45 1003.50 1003.68 1003.98 1004.45 1005.16 1005.88 1006.44 1007.13 1007.13 1007.57 1008.22 1008.69 1009.29 1010.61 1011.54 1012.32 1012.39 1013.02 1014.42 1015.77 1016.82 1017.87 1018.41 1019.16 1019.76 1019.99 1020.13 1020.07 1019.40 1019.27 1019.58 1019.34 1018.85 1018.65 1018.62 1018.34 1018.08 1017.61 1016.99
1005.15 1004.86 1004.38 1004.09 1003.83 1003.84 1003.98 1004.18 1004.75 1005.57 1006.13 1006.84 1007.48 1007.81 1008.33 1009.00 1009.49 1010.54 1011.19 1012.11 1012.34 1012.44 1013.85 1014.98 1016.28 1017.27 1018.07 1018.06 1019.21 1019.68 1020.01 1020.11 1020.20 1019.66 1019.54 1019.33 1019.08 1019.06 1018.54 1018.33 1017.98 1017.38 1016.72
1005.86 1005.48 1005.15 1004.80 1004.55 1004.17 1004.10 1004.31 1004.42 1004.96 1005.66 1006.27 1006.98 1007.99 1008.48 1008.92 1009.28 1010.41 1011.38 1012.16 1012.86 1012.82 1013.30 1013.95 1015.46 1016.58 1017.69 1017.70 1018.57 1019.09 1019.60 1019.68 1020.25 1020.10 1019.91 1019.58 1019.22 1019.21 1018.71 1018.07 1018.00 1017.63 1016.92
1006.17 1005.92 1005.65 1005.35 1005.12 1004.86 1004.77 1004.41 1004.33 1004.71 1005.26 1005.80 1006.63 1006.89 1007.94 1008.74 1009.01 1009.79 1011.08 1012.37 1013.36 1013.43 1013.86 1014.18 1015.19 1016.42 1017.07 1017.63 1018.11 1018.82 1019.33 1019.48 1020.01 1020.39 1020.26 1019.85 1019.28 1019.16 1018.36 1017.84 1017.80 1017.57 1016.98
1006.19 1006.09 1005.89 1005.55 1005.32 1005.08 1004.93 1004.96 1005.26 1005.13 1005.48 1006.02 1006.29 1007.03 1007.67 1008.40 1009.04 1009.72 1010.67 1012.13 1013.43 1014.38 1014.60 1014.98 1015.98 1016.76 1017.43 1018.23 1018.48 1019.12 1019.41 1019.57 1020.03 1020.20 1020.73 1020.72 1019.84 1019.24 1018.47 1017.69 1017.27 1017.22 1016.89
1006.08 1006.10 1005.97 1005.69 1005.47 1005.28 1005.17 1005.12 1005.26 1005.69 1006.30 1006.71 1006.91 1007.59 1007.90 1008.69 1009.41 1009.96 1010.73 1011.89 1013.54 1014.50 1015.35 1016.09 1016.64 1017.55 1017.91 1018.42 1018.60 1019.19 1019.58 1020.07 1020.35 1020.16 1020.61 1020.84 1020.49 1019.76 1018.91 1018.12 1017.55 1017.33 1017.07
Wind_Speed
7 6 7 6 6 5 5 5 5 5 6 6 6 6 6 7 5 4 4 9 8 9 9 8 7 7 6 5 5 4 3 4 5 6 6 6 6 7 7 8 9 11 12
7 7 7 7 6 7 7 6 7 6 6 5 6 7 5 4 5 7 4 5 9 8 9 10 9 8 7 6 4 4 5 5 6 5 6 6 7 8 9 11 12 13 14
7 9 7 7 8 7 8 6 7 5 5 5 7 5 5 6 5 4 6 5 5 9 10 9 9 8 7 6 6 6 7 6 6 6 7 8 10 11 12 13 14 15 16
8 7 8 7 8 7 8 7 7 5 6 5 5 5 5 5 6 6 6 5 4 4 6 9 9 8 7 7 7 6 5 5 5 6 8 9 11 12 13 14 15 16 17
11 10 8 8 7 7 8 8 5 6 5 4 5 5 5 6 6 4 7 6 7 6 5 9 10 10 9 9 8 7 6 5 5 5 7 8 10 12 14 15 16 17 18
14 8 8 9 7 5 6 7 7 4 5 5 4 5 4 4 4 5 5 5 6 8 7 8 6 5 9 10 9 8 7 6 6 5 7 9 11 13 14 16 17 18 18
16 13 7 8 8 9 9 9 5 7 5 5 3 2 1 4 6 5 5 5 6 7 8 6 5 4 4 10 10 9 7 7 6 5 6 9 12 14 15 16 17 19 19
17 14 13 10 11 8 9 11 11 4 5 6 5 2 2 4 4 6 5 5 7 5 8 8 7 8 6 4 6 10 10 7 6 6 8 11 12 14 15 17 18 20 21
16 18 15 12 10 8 10 11 11 13 10 5 8 6 3 6 2 1 7 5 6 5 6 7 7 7 6 5 7 8 9 7 4 5 8 10 12 14 17 18 18 19 20
16 18 17 16 13 10 11 11 9 11 8 12 2 8 3 5 4 1 2 2 4 5 5 3 5 6 8 7 11 11 10 6 4 6 8 11 14 17 18 18 18 18 18
14 16 16 15 15 11 13 12 12 12 12 9 11 4 3 2 3 3 3 2 1 3 5 6 6 5 7 7 6 9 9 4 2 3 6 11 15 16 16 17 18 18 19
10 14 17 16 15 15 14 12 13 14 12 12 9 8 11 11 6 5 3 2 5 4 3 5 5 5 6 7 9 12 7 3 4 2 5 8 12 13 14 16 17 17 19
10 15 17 16 14 16 16 10 12 14 14 13 12 12 9 11 4 4 5 3 4 3 2 1 4 6 6 5 7 8 8 9 6 4 6 6 9 11 12 14 16 18 19
14 17 17 17 17 16 15 14 11 11 13 13 16 13 10 9 5 5 7 6 1 2 1 4 2 4 5 5 7 10 5 10 7 7 7 4 8 10 12 14 15 17 19
8 12 16 17 16 17 15 16 11 13 12 13 14 11 11 7 5 5 5 5 6 6 4 4 2 3 5 5 6 5 4 10 6 2 2 4 9 9 11 14 15 17 19
8 8 13 17 16 14 15 15 14 10 12 11 12 13 8 5 6 5 5 4 2 3 3 2 1 5 6 5 6 5 2 4 7 2 3 6 7 9 12 15 14 15 19
7 7 9 12 15 15 14 13 15 14 14 14 12 12 12 10 7 5 3 1 1 2 4 2 3 5 3 6 4 4 5 4 3 6 6 9 8 9 11 11 9 11 15
7 8 7 10 13 14 13 16 16 14 14 15 11 11 11 9 11 10 8 10 10 4 4 8 4 3 4 3 5 5 2 3 3 6 11 9 9 10 10 7 7 10 18
7 7 7 10 11 12 13 14 14 14 14 13 15 15 14 14 12 9 10 9 7 4 4 5 4 2 3 2 4 3 3 3 2 8 8 9 12 12 5 10 7 14 20
7 7 7 8 8 7 7 6 7 9 9 9 10 12 14 15 12 11 10 10 8 8 4 4 3 3 3 1 3 1 2 2 3 3 5 6 8 12 11 11 8 15 21
8 7 6 6 6 8 7 9 8 8 8 6 7 10 10 10 13 11 9 8 9 7 7 5 3 2 3 2 3 2 1 2 3 2 3 4 3 3 5 8 6 15 21
8 7 8 5 5 4 9 13 12 10 10 11 11 9 9 12 11 9 9 9 9 13 9 6 4 3 4 5 3 3 1 3 3 2 5 4 2 4 5 5 9 15 20
6 7 7 6 6 5 12 14 15 10 11 11 12 10 8 8 13 10 12 12 9 10 6 7 7 4 4 5 6 4 2 2 1 3 2 2 2 5 7 4 9 15 21
4 5 6 6 5 3 7 12 15 10 10 11 12 15 14 15 14 16 13 11 7 8 6 6 7 6 6 6 5 4 3 2 1 2 4 2 2 5 4 3 7 14 21
3 3 5 6 5 6 6 7 1 5 6 6 11 11 13 13 17 19 15 13 10 8 13 19 16 15 14 11 8 3 2 2 2 2 3 1 3 4 3 3 2 13 18
3 3 5 6 6 7 6 11 8 6 6 5 6 4 8 10 16 14 13 14 11 9 10 9 8 9 9 9 10 4 3 3 1 2 1 3 3 4 4 3 2 6 7
Wind_Direction
182 163 168 169 174 167 180 183 188 203 220 223 225 228 225 233 167 158 165 188 166 151 143 142 141 139 130 127 118 108 73 48 38 34 39 28 37 16 2 350 342 336 330
177 178 173 175 178 179 187 183 194 200 217 214 225 211 217 218 239 162 170 183 163 164 160 152 153 153 149 145 131 112 93 77 59 43 34 39 19 5 356 346 335 328 325
178 186 172 178 186 183 183 182 203 194 207 217 213 217 219 228 220 187 173 186 173 179 174 168 163 163 164 158 139 115 98 79 56 34 16 1 356 347 340 336 331 326 322
176 187 190 180 189 180 188 192 198 194 202 199 207 221 214 219 217 164 164 168 174 180 182 174 176 178 162 158 139 127 108 81 52 28 16 359 349 344 337 330 326 322 318
192 183 193 196 179 189 187 193 196 180 185 198 216 220 204 209 206 176 161 178 188 180 171 180 180 182 175 168 158 148 132 103 69 32 17 0 348 338 330 326 321 317 314
199 175 189 195 190 180 181 183 182 188 175 194 202 195 190 194 191 191 196 190 189 184 172 176 175 188 181 171 164 158 144 112 80 44 11 351 340 330 324 318 315 313 312
195 197 189 193 193 201 194 190 172 185 208 173 137 316 343 207 206 202 204 214 212 182 169 172 170 170 179 174 168 161 139 118 93 40 360 341 332 325 322 320 320 317 314
189 197 199 200 202 198 194 193 192 170 192 180 157 124 228 312 257 215 206 220 216 170 168 172 173 170 173 155 158 151 133 119 83 26 352 333 328 326 327 326 326 324 318
187 195 200 199 203 195 206 200 194 193 203 201 189 149 174 219 172 254 216 207 181 163 155 162 160 154 142 129 122 123 121 110 74 8 344 331 329 329 326 325 328 321 319
192 194 197 200 199 202 206 208 198 199 182 207 211 207 147 148 176 250 314 178 171 157 165 171 149 132 133 140 146 150 155 151 47 7 345 334 327 326 327 329 326 320 319
196 196 198 198 205 204 213 204 203 201 208 203 207 173 186 154 144 130 209 215 7 202 177 148 150 152 135 132 140 162 164 125 43 9 345 326 329 334 333 328 323 322 320
199 196 201 204 206 208 210 206 203 204 208 212 207 200 204 200 182 162 145 192 178 234 189 162 156 145 139 145 152 158 164 140 120 98 304 320 334 335 334 329 324 323 319
203 207 202 203 207 211 211 203 203 207 206 208 203 209 213 216 168 141 138 168 155 210 153 178 184 147 144 129 144 150 131 146 157 228 252 299 327 329 325 319 322 321 321
205 205 207 209 210 209 210 207 205 208 208 210 210 208 208 215 181 169 183 143 142 142 209 211 157 155 139 138 148 134 157 168 210 241 232 292 309 320 320 319 321 319 321
204 206 205 206 206 208 203 207 208 212 208 210 213 201 203 205 189 171 158 156 161 186 200 202 158 164 127 128 136 136 143 194 268 6 222 294 306 315 319 318 318 320 324
195 189 193 202 205 203 204 202 210 207 208 210 210 204 186 167 178 168 167 157 204 135 170 145 174 138 136 129 130 127 97 64 42 81 208 291 290 307 321 315 318 323 331
205 202 188 197 205 205 200 200 209 212 212 211 207 195 183 158 169 151 139 65 250 169 143 100 110 127 106 124 107 75 61 75 20 337 349 328 328 331 316 318 313 341 333
213 212 201 199 203 206 198 203 209 210 211 209 192 176 175 166 162 165 161 174 160 208 137 133 128 121 109 113 117 89 54 53 350 341 347 340 343 328 328 326 43 347 339
245 219 196 198 200 202 201 204 207 209 209 201 186 181 172 166 169 188 191 189 153 142 120 137 143 117 107 144 79 47 41 357 332 336 320 1 342 327 10 20 12 352 339
305 242 200 195 197 189 185 183 184 193 202 191 183 179 169 171 182 184 188 182 157 137 124 118 107 114 121 108 100 150 350 310 302 322 23 339 329 320 13 353 353 339 338
328 329 285 212 203 201 191 172 170 169 168 163 162 160 171 176 155 182 170 185 168 144 143 148 122 111 139 104 153 204 177 282 294 78 354 316 316 13 346 333 321 337 339
329 338 323 287 228 206 184 173 168 175 165 168 170 164 157 158 155 171 169 206 187 155 156 144 155 147 178 135 141 151 138 15 349 338 352 296 25 346 336 314 326 345 343
320 319 316 330 293 234 188 187 173 174 173 175 164 157 155 152 141 136 116 102 77 80 123 133 147 153 152 152 142 137 145 113 261 344 320 294 26 336 326 302 340 350 350
299 291 293 293 282 276 256 208 183 172 177 173 174 167 164 160 159 145 139 120 112 92 96 102 111 113 117 122 123 131 131 128 296 74 357 315 328 305 289 298 354 351 357
286 269 281 282 264 268 208 147 135 151 150 160 158 165 158 166 160 152 142 132 115 101 86 94 99 103 103 105 103 99 93 91 153 108 23 333 294 296 288 279 304 351 359
267 302 295 274 258 257 214 183 152 130 126 126 120 143 147 152 153 155 142 141 136 130 121 109 96 98 102 110 104 92 89 106 21 102 16 352 302 333 329 291 317 359 355